When you browse on this site, cookies collect data to enhance your experience and personalize the content and advertising you see.
Visit our Privacy Policy to learn more. By continuing to use the site, you agree to this use of cookies and data.
  • In Romania
  • List of Countries
  • For 7 days
  • Water Temperature
  • Satellite Maps
  • Weather Map
  • Weather Widgets
  • user-avatar
    Login

    Hourly Weather Neuquén

    Today, 24 June, Monday

    Time Temperature Precipitation Wind Pressure Humidity
    00:00 +8°C° 0 mm 2 mps 729 mmHg 58%
    01:00 +8°C° 0 mm 2 mps 729 mmHg 58%
    02:00 +8°C° 0 mm 2 mps 728 mmHg 58%
    03:00 +7°C° 0 mm 3 mps 728 mmHg 59%
    04:00 +7°C° 0 mm 3 mps 727 mmHg 59%
    05:00 +7°C° 0 mm 3 mps 726 mmHg 60%
    06:00 +7°C° 0 mm 2 mps 726 mmHg 60%
    07:00 +7°C° 0 mm 2 mps 726 mmHg 61%
    08:00 +8°C° 0 mm 2 mps 726 mmHg 56%
    09:00 +10°C° 0 mm 3 mps 725 mmHg 52%
    10:00 +11°C° 0 mm 4 mps 725 mmHg 47%
    11:00 +10°C° 0 mm 6 mps 725 mmHg 43%
    12:00 +11°C° 0 mm 8 mps 725 mmHg 39%
    13:00 +11°C° 0 mm 11 mps 725 mmHg 35%
    14:00 +9°C° 0 mm 11 mps 726 mmHg 37%
    15:00 +8°C° 0 mm 12 mps 727 mmHg 38%
    16:00 +7°C° 0 mm 12 mps 728 mmHg 40%
    17:00 +5°C° 0 mm 12 mps 729 mmHg 40%
    18:00 +6°C° 0 mm 11 mps 730 mmHg 40%
    19:00 +4°C° 0 mm 11 mps 731 mmHg 40%
    20:00 +3°C° 0 mm 10 mps 731 mmHg 42%
    21:00 +3°C° 0 mm 10 mps 732 mmHg 43%
    22:00 +3°C° 0 mm 10 mps 732 mmHg 45%
    23:00 +2°C° 0 mm 10 mps 732 mmHg 45%

    Tomorrow, 25 June, Tuesday

    Time Temperature Precipitation Wind Pressure Humidity
    00:00 +2°C° 0 mm 9 mps 732 mmHg 46%
    01:00 +2°C° 0 mm 9 mps 733 mmHg 46%
    02:00 +2°C° 0 mm 8 mps 733 mmHg 46%
    03:00 +2°C° 0 mm 8 mps 733 mmHg 47%
    04:00 +2°C° 0 mm 7 mps 733 mmHg 47%
    05:00 +2°C° 0 mm 7 mps 733 mmHg 48%
    06:00 +2°C° 0 mm 7 mps 733 mmHg 49%
    07:00 +2°C° 0 mm 7 mps 733 mmHg 50%
    08:00 +4°C° 0 mm 8 mps 733 mmHg 47%
    09:00 +5°C° 0 mm 9 mps 733 mmHg 44%
    10:00 +7°C° 0 mm 10 mps 733 mmHg 41%
    11:00 +8°C° 0 mm 10 mps 733 mmHg 39%
    12:00 +9°C° 0 mm 11 mps 733 mmHg 36%
    13:00 +11°C° 0 mm 11 mps 732 mmHg 34%
    14:00 +11°C° 0 mm 10 mps 732 mmHg 36%
    15:00 +10°C° 0 mm 9 mps 732 mmHg 38%
    16:00 +10°C° 0 mm 8 mps 731 mmHg 40%
    17:00 +9°C° 0 mm 8 mps 731 mmHg 41%
    18:00 +9°C° 0 mm 8 mps 731 mmHg 42%
    19:00 +7°C° 0 mm 8 mps 731 mmHg 44%
    20:00 +7°C° 0 mm 8 mps 730 mmHg 42%
    21:00 +7°C° 0 mm 8 mps 730 mmHg 40%
    22:00 +7°C° 0 mm 9 mps 730 mmHg 39%
    23:00 +7°C° 0 mm 9 mps 729 mmHg 38%

    Day after tomorrow, 26 June, Wednesday

    Time Temperature Precipitation Wind Pressure Humidity
    00:00 +7°C° 0 mm 9 mps 728 mmHg 38%
    01:00 +6°C° 0 mm 9 mps 727 mmHg 37%
    02:00 +6°C° 0 mm 10 mps 726 mmHg 37%
    03:00 +6°C° 0 mm 10 mps 725 mmHg 37%
    04:00 +6°C° 0 mm 10 mps 725 mmHg 37%
    05:00 +6°C° 0 mm 10 mps 724 mmHg 39%
    06:00 +6°C° 0 mm 10 mps 724 mmHg 41%
    07:00 +6°C° 0 mm 10 mps 724 mmHg 42%
    08:00 +8°C° 0 mm 10 mps 724 mmHg 41%
    09:00 +9°C° 0 mm 11 mps 724 mmHg 40%
    10:00 +12°C° 0 mm 11 mps 724 mmHg 38%
    11:00 +13°C° 0 mm 11 mps 723 mmHg 37%
    12:00 +14°C° 0 mm 11 mps 723 mmHg 36%
    13:00 +14°C° 0 mm 11 mps 722 mmHg 35%
    14:00 +14°C° 0 mm 11 mps 722 mmHg 37%
    15:00 +13°C° 0 mm 10 mps 722 mmHg 40%
    16:00 +12°C° 0 mm 10 mps 722 mmHg 43%
    17:00 +11°C° 0 mm 9 mps 722 mmHg 45%
    18:00 +10°C° 0 mm 9 mps 723 mmHg 47%
    19:00 +10°C° 0 mm 8 mps 723 mmHg 50%
    20:00 +9°C° 0 mm 6 mps 723 mmHg 52%
    21:00 +9°C° 0 mm 5 mps 723 mmHg 54%
    22:00 +10°C° 0 mm 4 mps 723 mmHg 56%
    23:00 +10°C° 0 mm 4 mps 723 mmHg 56%

    27 June, Thursday

    Time Temperature Precipitation Wind Pressure Humidity
    00:00 +10°C° 0 mm 4 mps 723 mmHg 55%
    01:00 +9°C° 0 mm 5 mps 723 mmHg 55%
    02:00 +9°C° 0 mm 5 mps 722 mmHg 55%
    03:00 +10°C° 0 mm 4 mps 722 mmHg 55%
    04:00 +10°C° 0 mm 4 mps 722 mmHg 56%
    05:00 +10°C° 0 mm 4 mps 722 mmHg 57%
    06:00 +8°C° 0 mm 4 mps 722 mmHg 58%
    07:00 +8°C° 0 mm 4 mps 722 mmHg 59%
    08:00 +9°C° 0 mm 5 mps 723 mmHg 56%
    09:00 +10°C° 0 mm 6 mps 723 mmHg 52%
    10:00 +11°C° 0 mm 7 mps 723 mmHg 48%
    11:00 +12°C° 0 mm 8 mps 722 mmHg 46%
    12:00 +12°C° 0 mm 8 mps 722 mmHg 44%
    13:00 +13°C° 0 mm 9 mps 721 mmHg 42%
    14:00 +12°C° 0 mm 7 mps 721 mmHg 45%
    15:00 +13°C° 0 mm 5 mps 721 mmHg 47%
    16:00 +12°C° 0 mm 3 mps 721 mmHg 50%
    17:00 +12°C° 0.1 mm 3 mps 721 mmHg 53%
    18:00 +11°C° 0.1 mm 3 mps 721 mmHg 56%
    19:00 +11°C° 0.1 mm 4 mps 722 mmHg 59%
    20:00 +11°C° 0 mm 4 mps 722 mmHg 59%
    21:00 +11°C° 0 mm 4 mps 722 mmHg 58%
    22:00 +11°C° 0 mm 4 mps 722 mmHg 58%
    23:00 +10°C° 0 mm 3 mps 722 mmHg 57%

    28 June, Friday

    Time Temperature Precipitation Wind Pressure Humidity
    00:00 +10°C° 0 mm 3 mps 722 mmHg 57%
    01:00 +9°C° 0 mm 3 mps 722 mmHg 57%
    02:00 +9°C° 0 mm 3 mps 722 mmHg 56%
    03:00 +9°C° 0 mm 3 mps 722 mmHg 55%
    04:00 +9°C° 0 mm 3 mps 722 mmHg 55%
    05:00 +8°C° 0 mm 3 mps 722 mmHg 59%
    06:00 +8°C° 0 mm 3 mps 723 mmHg 63%
    07:00 +8°C° 0 mm 3 mps 723 mmHg 67%
    08:00 +7°C° 0 mm 5 mps 724 mmHg 62%
    09:00 +8°C° 0 mm 7 mps 725 mmHg 57%
    10:00 +8°C° 0 mm 9 mps 726 mmHg 52%
    11:00 +7°C° 0 mm 9 mps 727 mmHg 53%
    12:00 +6°C° 0 mm 9 mps 727 mmHg 54%
    13:00 +6°C° 0 mm 9 mps 728 mmHg 55%
    14:00 +6°C° 0 mm 9 mps 728 mmHg 53%
    15:00 +5°C° 0 mm 9 mps 729 mmHg 51%
    16:00 +5°C° 0 mm 9 mps 730 mmHg 49%
    17:00 +4°C° 0 mm 7 mps 731 mmHg 54%
    18:00 +3°C° 0 mm 6 mps 732 mmHg 59%
    19:00 +3°C° 0 mm 5 mps 732 mmHg 64%
    20:00 +2°C° 0 mm 5 mps 733 mmHg 64%
    21:00 +2°C° 0 mm 5 mps 734 mmHg 63%
    22:00 +1°C° 0 mm 6 mps 734 mmHg 63%
    23:00 +1°C° 0 mm 6 mps 735 mmHg 61%

    29 June, Saturday

    Time Temperature Precipitation Wind Pressure Humidity
    00:00 -1°C° 0 mm 6 mps 735 mmHg 60%
    01:00 -1°C° 0 mm 6 mps 735 mmHg 58%
    02:00 -1°C° 0 mm 6 mps 735 mmHg 57%
    03:00 -1°C° 0 mm 5 mps 736 mmHg 56%
    04:00 -1°C° 0 mm 5 mps 736 mmHg 55%
    05:00 -1°C° 0 mm 5 mps 736 mmHg 54%
    06:00 -1°C° 0 mm 5 mps 737 mmHg 53%
    07:00 -2°C° 0 mm 5 mps 737 mmHg 53%
    08:00 -1°C° 0 mm 6 mps 738 mmHg 48%
    09:00 +1°C° 0 mm 6 mps 738 mmHg 44%
    10:00 +3°C° 0 mm 7 mps 738 mmHg 40%
    11:00 +3°C° 0 mm 7 mps 738 mmHg 39%
    12:00 +4°C° 0 mm 7 mps 738 mmHg 38%
    13:00 +4°C° 0 mm 6 mps 737 mmHg 37%
    14:00 +4°C° 0 mm 6 mps 738 mmHg 38%
    15:00 +5°C° 0 mm 5 mps 738 mmHg 40%
    16:00 +4°C° 0 mm 4 mps 738 mmHg 41%
    17:00 +4°C° 0 mm 3 mps 738 mmHg 43%
    18:00 +3°C° 0 mm 3 mps 739 mmHg 46%
    19:00 +2°C° 0 mm 3 mps 739 mmHg 48%
    20:00 +2°C° 0 mm 3 mps 739 mmHg 49%
    21:00 +3°C° 0 mm 2 mps 739 mmHg 51%
    22:00 +2°C° 0 mm 2 mps 739 mmHg 52%
    23:00 +2°C° 0 mm 2 mps 739 mmHg 54%
    Show more